Location: Unspecified
(35.1562°N, 0.0000°E)
Time: 04:07:06
(UTC+00:00)

Explorer 7 - All Passes

Search period start: 04 April 2026 00:00
Search period end: 14 April 2026 00:00
Orbit: 429 x 539 km, 50.2° (Epoch: 29 March)

Date Brightness Start Highest point End Pass type
(mag) Time Alt. Az. Time Alt. Az. Time Alt. Az.
4 Apr - 01:41:59 10° N 01:43:28 12° NNE 01:44:56 10° NE night (unlit)
4 Apr - 03:19:01 10° NW 03:22:34 47° NE 03:25:59 10° ESE visible
4 Apr - 04:58:19 10° W 05:00:34 16° SW 05:02:47 10° SSW visible
4 Apr - 18:40:07 10° SE 18:40:16 10° SE 18:40:25 10° SE daylight
4 Apr - 20:14:05 10° SW 20:18:08 88° SE 20:22:07 10° NE visible
4 Apr - 21:54:07 10° WNW 21:56:55 18° NNW 21:59:39 10° NNE visible
5 Apr - 01:15:00 10° N 01:16:23 12° NNE 01:17:46 10° NE night (unlit)
5 Apr - 02:51:59 10° NW 02:55:31 44° NE 02:58:56 10° ESE visible
5 Apr - 04:31:06 10° W 04:33:33 18° SW 04:35:58 10° S visible
5 Apr - 19:47:00 10° SW 19:51:03 81° SE 19:55:03 10° NE visible
5 Apr - 21:26:54 10° WNW 21:29:48 19° NNW 21:32:39 10° NNE visible
6 Apr - 00:47:58 10° N 00:49:16 11° NNE 00:50:33 10° NE night (unlit)
6 Apr - 02:24:55 10° NW 02:28:26 41° NE 02:31:50 10° ESE night (unlit)
6 Apr - 04:03:52 10° W 04:06:31 19° SW 04:09:06 10° S visible
6 Apr - 19:19:53 10° SW 19:23:57 75° SE 19:27:57 10° NE visible
6 Apr - 20:59:39 10° WNW 21:02:40 20° NNW 21:05:37 10° NNE visible
7 Apr - 00:20:55 10° N 00:22:07 11° NNE 00:23:18 10° NNE night (unlit)
7 Apr - 01:57:49 10° NW 02:01:20 38° NE 02:04:42 10° ESE night (unlit)
7 Apr - 03:36:38 10° W 03:39:27 21° SW 03:42:11 10° S night (unlit)
7 Apr - 18:52:46 10° SW 18:56:49 69° SE 19:00:49 10° NE visible
7 Apr - 20:32:22 10° WNW 20:35:29 21° NNW 20:38:33 10° NNE visible
7 Apr - 23:53:50 10° N 23:54:55 11° NNE 23:56:01 10° NNE night (unlit)
8 Apr - 01:30:42 10° NW 01:34:11 36° NNE 01:37:33 10° ESE night (unlit)
8 Apr - 03:09:23 10° WNW 03:12:21 23° SW 03:15:14 10° S night (unlit)
8 Apr - 18:25:37 10° SW 18:29:39 63° SE 18:33:38 10° NE daylight
8 Apr - 20:05:05 10° W 20:08:17 22° NNW 20:11:27 10° NNE visible
8 Apr - 23:26:44 10° N 23:27:43 11° NNE 23:28:42 10° NNE night (unlit)
9 Apr - 01:03:32 10° NW 01:07:00 34° NNE 01:10:21 10° E night (unlit)
9 Apr - 02:42:07 10° WNW 02:45:13 26° SW 02:48:13 10° S night (unlit)
9 Apr - 17:58:27 10° SW 18:02:28 58° SE 18:06:26 10° ENE daylight
9 Apr - 19:37:45 10° W 19:41:03 23° NNW 19:44:19 10° NNE visible
9 Apr - 22:59:35 10° N 23:00:28 11° NNE 23:01:20 10° NNE night (unlit)
10 Apr - 00:36:21 10° NNW 00:39:48 32° NNE 00:43:07 10° E night (unlit)
10 Apr - 02:14:50 10° WNW 02:18:03 28° SW 02:21:11 10° SSE night (unlit)
10 Apr - 17:31:16 10° SSW 17:35:14 53° SE 17:39:12 10° ENE daylight
10 Apr - 19:10:25 10° W 19:13:48 25° NNW 19:17:09 10° NNE visible
10 Apr - 22:32:26 10° N 22:33:11 10° NNE 22:33:55 10° NNE visible
11 Apr - 00:09:08 10° NNW 00:12:33 30° NNE 00:15:51 10° E night (unlit)
11 Apr - 01:47:31 10° WNW 01:50:52 31° SW 01:54:05 10° SSE night (unlit)
11 Apr - 17:04:03 10° SSW 17:07:59 49° SE 17:11:55 10° ENE daylight
11 Apr - 18:43:03 10° W 18:46:31 26° NNW 18:49:56 10° NNE daylight
11 Apr - 20:25:43 10° NNW 20:25:58 10° N 20:26:15 10° N visible
11 Apr - 22:05:17 10° N 22:05:52 10° N 22:06:28 10° NNE visible
11 Apr - 23:41:53 10° NNW 23:45:17 28° NNE 23:48:33 10° E night (unlit)
12 Apr - 01:20:12 10° WNW 01:23:38 34° SW 01:26:57 10° SSE night (unlit)
12 Apr - 16:36:50 10° SSW 16:40:43 44° SE 16:44:37 10° ENE daylight
12 Apr - 18:15:40 10° W 18:19:12 27° NNW 18:22:42 10° NNE daylight
12 Apr - 19:57:55 10° NNW 19:58:38 10° N 19:59:20 10° N visible
12 Apr - 21:38:08 10° N 21:38:32 10° N 21:38:56 10° NNE visible
12 Apr - 23:14:37 10° NNW 23:17:58 27° NNE 23:21:13 10° E night (unlit)
13 Apr - 00:52:50 10° WNW 00:56:23 38° SW 00:59:46 10° SSE night (unlit)
13 Apr - 16:09:35 10° SSW 16:13:25 41° SE 16:17:15 10° ENE daylight
13 Apr - 17:48:15 10° W 17:51:51 29° NNW 17:55:26 10° NNE daylight
13 Apr - 19:30:17 10° NNW 19:31:16 11° NNW 19:32:14 10° N visible
13 Apr - 22:47:20 10° NNW 22:50:38 26° NNE 22:53:50 10° E visible
